Вернуться в каталог

COSMOS 2147

АктивенВоенныеPO
NORAD 21303·PAYLOAD·🇷🇺 Russia

Запущен May 16, 1991 с Plesetsk Cosmodrome

Loading…

Ближайшие Пролёты (ближайшие 24 часа)

TLE

СвежийSource: Space-Track

Эпоха: Sep 14, 2026, 07:28 UTC

1 21303U 91033E   26257.31116314  .00000012  00000-0  63419-5 0  9998
2 21303  82.5658 217.9577 0019271 155.6519 359.9990 12.65167699631416

Отслеживайте COSMOS 2147 в реальном времени с AllMySat

Download on the App Store